Melton West, Australia

8:47 PM AEDT on October 24, 2017 (GMT +1100)
Melton West

Weather History for 94866 - June, 2013

Change the Weather History Date:

Thursday, June 13, 2013

  Actual Average Record
Temperature  
Mean Temperature 51 °F -  
Max Temperature 53 °F 54 °F - ()
Min Temperature 49 °F 42 °F - ()
Degree Days  
Heating Degree Days 14    
Growing Degree Days 1 (Base 50)    
Moisture  
Dew Point 50 °F    
Average Humidity 96    
Maximum Humidity 100    
Minimum Humidity 85    
Precipitation  
Precipitation 0.75 in 0.05 in - ()
Sea Level Pressure  
Sea Level Pressure 29.80 in    
Wind  
Wind Speed 9 mph ()    
Max Wind Speed 17 mph    
Max Gust Speed -    
Visibility 4.3 miles    
Events Fog , Rain    
T = Trace of Precipitation, MM = Missing Value Source: Averaged Metar Reports

Daily Weather History Graph

Daily Weather History Graph

Search for Another Location

Airport or City:

Trip Planner

Search our weather history database for the weather conditions in past years. The results will help you decide how hot, cold, wet, or windy it might be!

Date:

Astronomy

Jun. 13, 2013 Rise Set
Actual Time 7:33 AM AEST 5:08 PM AEST
Civil Twilight 7:03 AM AEST 5:37 PM AEST
Nautical Twilight 6:30 AM AEST 6:10 PM AEST
Astronomical Twilight 5:59 AM AEST 6:42 PM AEST
Moon 10:18 AM AEST (6/13) 9:21 PM AEST (6/13)
Length of Visible Light 10h 33m
Length of Day
9h 35m
Waxing Crescent, 17% of the Moon is Illuminated
Jun 13
Waxing Crescent
Jun 17
First Quarter
Jun 23
Full
Jun 30
Last Quarter
Jul 8
New

Hourly Weather History & Observations

Time (AEST) Temp. Dew Point Humidity Pressure Visibility Wind Dir Wind Speed Gust Speed Precip Events Conditions
12:00 AM 50 °F 50 °F 98% 29.79 in 3 mi South 4.6 mph - - Rain Light Drizzle
12:00 AM 50.0 °F 50.0 °F 100% 29.77 in 3.1 mi South 4.6 mph - N/A   Light Drizzle
12:30 AM 50.0 °F 50.0 °F 100% 29.77 in 3.7 mi South 5.8 mph - N/A   Mostly Cloudy
1:00 AM 50 °F 50 °F 99% 29.78 in - South 3.5 mph - -  
1:00 AM 50.0 °F 50.0 °F 100% 29.77 in 4.3 mi South 3.5 mph - N/A   Mostly Cloudy
1:30 AM 50.0 °F 50.0 °F 100% 29.77 in 2.5 mi SSW 3.5 mph - N/A   Light Drizzle
2:00 AM 50.0 °F 50.0 °F 100% 29.77 in 1.9 mi SSW 4.6 mph - N/A   Light Drizzle
2:30 AM 50.0 °F 50.0 °F 100% 29.77 in 1.2 mi Calm Calm - N/A Fog Mostly Cloudy
3:00 AM 50 °F 50 °F 100% 29.78 in 1 mi SSW 1.2 mph - - Rain Light Drizzle
3:00 AM 50.0 °F 50.0 °F 100% 29.77 in 0.6 mi SSW 1.2 mph - N/A Rain Light Rain
3:30 AM 50.0 °F 50.0 °F 100% 29.74 in 1.9 mi South 5.8 mph - N/A Fog Mostly Cloudy
4:00 AM 50 °F 50 °F 100% 29.76 in - SSW 5.8 mph - -  
4:00 AM 50.0 °F 50.0 °F 100% 29.74 in 0.4 mi SSW 5.8 mph - N/A Fog Fog
4:10 AM 50.0 °F 50.0 °F 100% 29.74 in 1.6 mi South 5.8 mph - N/A Fog , Rain Light Rain
4:30 AM 50.0 °F 50.0 °F 100% 29.74 in 1.9 mi South 6.9 mph - N/A Fog , Rain Light Rain
5:00 AM 51.8 °F 51.8 °F 100% 29.74 in 3.1 mi South 9.2 mph - N/A   Mostly Cloudy
5:20 AM 51.8 °F 51.8 °F 100% 29.74 in 5.0 mi SSE 11.5 mph - N/A   Mostly Cloudy
5:30 AM 51.8 °F 51.8 °F 100% 29.77 in 5.6 mi SSE 10.4 mph - N/A   Mostly Cloudy
6:00 AM 52 °F 51 °F 95% 29.79 in 6 mi SSE 10.4 mph - - Rain Light Rain
6:00 AM 51.8 °F 51.8 °F 100% 29.77 in 5.6 mi SSE 10.4 mph - N/A Rain Light Rain
6:30 AM 51.8 °F 51.8 °F 100% 29.77 in 5.6 mi South 10.4 mph - N/A Rain Light Rain
7:00 AM 51 °F 51 °F 99% 29.79 in - South 9.2 mph - -  
7:00 AM 51.8 °F 50.0 °F 94% 29.77 in 5.6 mi South 9.2 mph - N/A Rain Light Rain
7:30 AM 51.8 °F 51.8 °F 100% 29.77 in 5.0 mi South 9.2 mph - N/A Rain Light Rain
8:00 AM 51.8 °F 50.0 °F 94% 29.77 in 6.2 mi South 10.4 mph - N/A Rain Light Rain
8:30 AM 51.8 °F 50.0 °F 94% 29.77 in 5.0 mi South 10.4 mph - N/A   Light Drizzle
8:53 AM 51.8 °F 51.8 °F 100% 29.80 in 4.3 mi South 12.7 mph - N/A   Drizzle
9:00 AM 53 °F 51 °F 91% 29.81 in 5 mi South 12.7 mph - - Rain Light Rain
9:00 AM 51.8 °F 51.8 °F 100% 29.80 in 5.0 mi South 12.7 mph - N/A Rain Light Rain
9:30 AM 53.6 °F 51.8 °F 94% 29.80 in 4.3 mi SSE 17.3 mph - N/A Rain Rain
10:00 AM 53 °F 52 °F 93% 29.81 in - SSE 12.7 mph - -  
10:00 AM 53.6 °F 51.8 °F 94% 29.80 in 4.3 mi SSE 12.7 mph - N/A Rain Light Rain
10:31 AM 53.6 °F 51.8 °F 94% 29.80 in 4.3 mi SSE 15.0 mph - N/A Rain Light Rain
11:00 AM 53.6 °F 51.8 °F 94% 29.80 in 3.7 mi South 11.5 mph - N/A Rain Light Rain
11:30 AM 53.6 °F 51.8 °F 94% 29.80 in 3.7 mi South 10.4 mph - N/A Rain Light Rain
12:00 PM 53 °F 51 °F 90% 29.82 in 4 mi South 11.5 mph - - Rain Light Rain
12:00 PM 53.6 °F 51.8 °F 94% 29.80 in 4.3 mi South 11.5 mph - N/A Rain Light Rain
12:30 PM 53.6 °F 51.8 °F 94% 29.80 in 5.6 mi SSE 12.7 mph - N/A Rain Light Rain
1:00 PM 52 °F 50 °F 90% 29.81 in - SSE 16.1 mph - -  
1:00 PM 51.8 °F 50.0 °F 94% 29.80 in 4.3 mi SSE 16.1 mph - N/A Rain Light Rain
1:30 PM 51.8 °F 50.0 °F 94% 29.80 in 5.6 mi SSE 15.0 mph - N/A Rain Light Rain
1:47 PM 51.8 °F 50.0 °F 94% 29.80 in 4.3 mi South 10.4 mph - N/A Rain Light Rain
2:00 PM 51.8 °F 50.0 °F 94% 29.80 in 3.1 mi South 10.4 mph - N/A Rain Rain
2:30 PM 51.8 °F 50.0 °F 94% 29.80 in 3.7 mi South 12.7 mph - N/A Rain Light Rain
2:51 PM 51.8 °F 50.0 °F 94% 29.80 in 5.6 mi South 13.8 mph - N/A Rain Light Rain
3:00 PM 52 °F 51 °F 93% 29.81 in 6 mi South 12.7 mph - - Rain Light Rain
3:00 PM 51.8 °F 50.0 °F 94% 29.80 in 5.6 mi South 12.7 mph - N/A Rain Light Rain
3:30 PM 51.8 °F 50.0 °F 94% 29.80 in 5.6 mi South 12.7 mph - N/A Rain Light Rain
3:52 PM 51.8 °F 50.0 °F 94% 29.80 in 3.7 mi South 10.4 mph - N/A Rain Light Rain
4:00 PM 52 °F 50 °F 91% 29.82 in - South 11.5 mph - -  
4:00 PM 51.8 °F 50.0 °F 94% 29.80 in 4.3 mi South 11.5 mph - N/A Rain Light Rain
4:21 PM 51.8 °F 50.0 °F 94% 29.80 in 3.1 mi South 12.7 mph - N/A Rain Rain
4:30 PM 51.8 °F 50.0 °F 94% 29.80 in 3.1 mi SSW 11.5 mph - N/A Rain Light Rain
5:00 PM 51.8 °F 50.0 °F 94% 29.80 in 3.1 mi South 15.0 mph - N/A Rain Rain Showers
5:22 PM 51.8 °F 50.0 °F 94% 29.80 in 5.6 mi South 15.0 mph - N/A Rain Light Rain
5:30 PM 51.8 °F 51.8 °F 100% 29.80 in 4.3 mi South 13.8 mph - N/A Rain Light Rain
5:49 PM 51.8 °F 51.8 °F 100% 29.83 in 3.1 mi South 15.0 mph - N/A Rain Rain
6:00 PM 52 °F 51 °F 95% 29.83 in 3 mi South 13.8 mph - - Rain Light Rain Showers
6:00 PM 51.8 °F 51.8 °F 100% 29.83 in 3.1 mi South 13.8 mph - N/A Rain Light Rain Showers
6:30 PM 51.8 °F 50.0 °F 94% 29.83 in 5.0 mi South 12.7 mph - N/A Rain Light Rain
7:00 PM 52 °F 50 °F 91% 29.85 in - South 13.8 mph - -  
7:00 PM 51.8 °F 50.0 °F 94% 29.83 in 6.2 mi South 13.8 mph - N/A Rain Light Rain
7:30 PM 51.8 °F 50.0 °F 94% 29.83 in 6.2 mi South 15.0 mph - N/A Rain Light Rain
8:00 PM 51.8 °F 50.0 °F 94% 29.83 in 6.2 mi South 16.1 mph - N/A Rain Light Rain
8:30 PM 51.8 °F 50.0 °F 94% 29.83 in 5.6 mi SSW 13.8 mph - N/A Rain Light Rain
9:00 PM 52 °F 49 °F 85% 29.86 in 9 mi South 17.3 mph - - Rain Light Rain
9:00 PM 51.8 °F 48.2 °F 88% 29.83 in 6.2 mi South 17.3 mph - N/A Rain Light Rain
9:30 PM 51.8 °F 48.2 °F 88% 29.83 in 5.6 mi South 16.1 mph - N/A Rain Light Rain
10:00 PM 51 °F 50 °F 93% 29.86 in - SSW 15.0 mph - -  
10:00 PM 51.8 °F 50.0 °F 94% 29.83 in 5.6 mi SSW 15.0 mph - N/A Rain Light Rain
10:30 PM 51.8 °F 50.0 °F 94% 29.83 in 6.2 mi SSW 17.3 mph - N/A Rain Light Rain
11:00 PM 51.8 °F 50.0 °F 94% 29.83 in 5.6 mi SSW 16.1 mph - N/A Rain Light Rain
11:30 PM 51.8 °F 50.0 °F 94% 29.83 in 5.0 mi SSW 16.1 mph - N/A Rain Light Rain